N1EDU Weather Reports


time (UTC)temp
F
wind
direction
speed
knots
gust
knots
rain 1hr
in
rain 24hr
in
rain mn
in
humidity
%
barometer
mb
20260507070242 47 291 3.5 8.7 0.00 0.00 0.00 99 1005.7
20260507065710 48 304 6.1 8.7 0.00 0.00 0.00 99 1005.7
20260507065209 48 337 0.0 7.0 0.00 0.00 0.00 99 1005.7
20260507064708 48 337 3.5 7.0 0.00 0.00 0.00 99 1005.7
20260507064207 48 311 2.6 7.8 0.00 0.00 0.00 99 1005.7
20260507063706 48 315 3.5 7.8 0.00 0.00 0.00 99 1005.7
20260507063205 48 284 1.7 7.0 0.00 0.00 0.00 99 1005.7
20260507062705 48 278 3.5 7.0 0.00 0.00 0.00 99 1005.7
20260507062204 48 288 3.5 7.0 0.00 0.00 0.00 99 1005.8
20260507061632 48 317 2.6 7.0 0.00 0.00 0.00 99 1005.8
20260507061131 48 297 4.3 8.7 0.00 0.00 0.00 99 1005.8
20260507060630 48 282 5.2 8.7 0.00 0.00 0.00 99 1005.8
20260507060129 48 268 2.6 7.8 0.00 0.00 0.00 99 1005.8
20260507055628 48 273 1.7 9.6 0.00 0.00 0.00 98 1005.8
20260507055127 48 274 5.2 9.6 0.00 0.00 0.00 99 1005.8
20260507054555 48 283 4.3 8.7 0.00 0.00 0.00 99 1005.4
20260507054054 48 285 5.2 8.7 0.00 0.00 0.00 99 1005.5
20260507053553 48 261 4.3 7.0 0.00 0.00 0.00 99 1005.5
20260507053053 49 280 4.3 7.0 0.00 0.00 0.00 98 1005.5
20260507052521 49 283 3.5 8.7 0.00 0.00 0.00 98 1005.5
20260507052020 49 300 3.5 10.4 0.00 0.00 0.00 98 1005.8
20260507051519 49 287 6.1 10.4 0.00 0.00 0.00 99 1005.5
20260507051019 49 272 5.2 7.8 0.00 0.00 0.00 99 1005.5
20260507050344 49 273 3.5 6.1 0.00 0.00 0.00 99 1005.5
20260507045843 50 335 0.0 6.1 0.00 0.00 0.00 99 1005.5
20260507045342 50 251 4.3 6.1 0.00 0.00 0.00 99 1005.5
20260507044841 50 326 0.0 3.5 0.00 0.00 0.00 99 1005.8
20260507044340 50 326 0.0 3.5 0.00 0.00 0.00 99 1005.5
20260507043839 50 320 0.0 4.3 0.00 0.00 0.00 99 1005.8
20260507043336 50 308 3.5 4.3 0.00 0.00 0.00 99 1005.5
20260507042835 50 170 1.7 4.3 0.00 0.00 0.00 99 1005.5
20260507042232 50 337 2.6 5.2 0.00 0.00 0.00 99 1005.8
20260507041731 50 307 1.7 5.2 0.00 0.00 0.00 99 1005.5
20260507041230 51 300 0.9 6.1 0.00 0.00 0.00 99 1005.5
20260507040729 51 294 2.6 6.1 0.00 0.00 0.00 99 1005.5
20260507040229 51 272 2.6 6.1 0.00 0.00 0.00 99 1005.1
20260507035728 52 299 2.6 4.3 0.00 0.00 0.00 99 1005.2
20260507035156 52 315 1.7 6.1 0.00 0.00 0.00 99 1005.2
20260507034624 53 327 1.7 6.1 0.00 0.00 0.00 99 1005.2
20260507034052 53 296 0.0 6.1 0.00 0.00 0.00 99 1005.2
20260507033520 53 199 1.7 7.0 0.00 0.00 0.00 99 1005.2
20260507033019 53 307 3.5 7.8 0.00 0.00 0.00 99 1005.2
20260507032519 54 345 1.7 7.8 0.00 0.00 0.00 99 1005.2
20260507031947 54 323 5.2 11.3 0.00 0.00 0.00 99 1005.2
20260507031446 55 316 6.1 10.4 0.00 0.00 0.00 99 1005.2
20260507030914 55 299 3.5 7.0 0.00 0.00 0.00 100 1005.1
20260507030413 56 296 3.5 7.0 0.00 0.00 0.00 100 1005.1
20260507025912 56 299 3.5 8.7 0.00 0.00 0.00 100 1005.1
20260507025412 56 283 3.5 8.7 0.00 0.00 0.00 100 1004.8
20260507024910 56 303 3.5 7.0 0.00 0.00 0.00 100 1004.8
20260507024410 56 290 0.0 10.4 0.00 0.00 0.00 100 1004.5
20260507023836 57 302 6.1 10.4 0.00 0.00 0.00 100 1004.8
20260507023304 57 318 3.5 13.9 0.00 0.00 0.00 100 1004.8
20260507022803 57 319 3.5 13.9 0.00 0.00 0.00 100 1004.8
20260507022302 58 308 6.1 10.4 0.00 0.00 0.00 100 1004.5
20260507021801 58 316 4.3 9.6 0.00 0.00 0.00 100 1004.5
20260507021300 59 287 2.6 4.3 0.00 0.00 0.00 100 1004.5
20260507020759 59 278 2.6 4.3 0.00 0.00 0.00 100 1004.1
20260507020258 59 237 1.7 6.1 0.00 0.00 0.00 100 1004.5
20260507015757 59 218 2.6 7.0 0.00 0.00 0.00 100 1004.5
20260507015255 59 243 3.5 7.0 0.00 0.00 0.00 100 1004.5
20260507014754 59 238 2.6 7.8 0.00 0.00 0.00 100 1004.5
20260507014253 59 240 2.6 7.8 0.00 0.00 0.00 100 1004.5
20260507013752 59 221 2.6 7.0 0.00 0.00 0.00 100 1004.5
20260507013252 59 209 2.6 7.0 0.00 0.00 0.00 100 1004.5
20260507012751 59 190 0.9 7.8 0.00 0.00 0.00 100 1004.5
20260507012250 59 238 2.6 7.8 0.00 0.00 0.00 100 1004.5
20260507011749 59 242 3.5 7.0 0.00 0.00 0.00 100 1004.5
20260507011248 59 222 2.6 6.1 0.00 0.00 0.00 100 1004.5
20260507010747 59 187 3.5 8.7 0.00 0.00 0.00 100 1004.5
20260507010247 59 234 2.6 8.7 0.00 0.00 0.00 100 1004.5
20260507005746 59 238 3.5 7.8 0.00 0.00 0.00 100 1004.5
20260507005245 59 233 2.6 7.8 0.00 0.00 0.00 100 1004.5
20260507004744 59 274 3.5 8.7 0.00 0.00 0.00 100 1004.5
20260507004243 59 236 3.5 8.7 0.00 0.00 0.00 100 1004.4
20260507003742 59 240 3.5 8.7 0.00 0.00 0.00 100 1004.4
20260507003241 59 233 3.5 8.7 0.00 0.00 0.00 100 1004.4
20260507002741 59 243 4.3 12.2 0.00 0.00 0.00 100 1004.4
20260507002240 59 214 4.3 12.2 0.00 0.00 0.00 100 1004.4
20260507001739 59 245 5.2 10.4 0.00 0.00 0.00 100 1004.4
20260507001238 59 225 3.5 8.7 0.00 0.00 0.00 100 1004.4
20260507000737 59 216 2.6 8.7 0.00 0.00 0.00 100 1004.1
20260507000236 59 207 4.3 8.7 0.00 0.00 0.00 100 1004.1
20260506235735 59 212 2.6 8.7 0.00 0.00 0.00 100 1004.1
20260506235235 59 241 3.5 7.8 0.00 0.00 0.00 100 1004.1
20260506234734 59 233 3.5 9.6 0.00 0.00 0.00 100 1004.1
20260506234234 59 228 4.3 11.3 0.00 0.00 0.00 100 1004.1
20260506233701 59 210 3.5 11.3 0.00 0.00 0.00 100 1004.1
20260506233201 59 206 6.1 11.3 0.00 0.00 0.00 100 1004.4
20260506232659 59 217 4.3 14.8 0.00 0.00 0.00 100 1004.4
20260506232159 59 221 5.2 14.8 0.00 0.00 0.00 100 1004.4
20260506231658 59 224 3.5 7.0 0.00 0.00 0.00 100 1004.4
20260506231125 59 230 0.0 8.7 0.00 0.00 0.00 100 1004.4
20260506230625 59 227 3.5 8.7 0.00 0.00 0.00 100 1004.4
20260506230124 59 220 4.3 8.7 0.00 0.00 0.00 100 1004.1
20260506225623 59 237 2.6 8.7 0.00 0.00 0.00 100 1004.4
20260506225122 59 231 1.7 8.7 0.00 0.00 0.00 100 1004.4
20260506224550 59 229 3.5 11.3 0.00 0.00 0.00 100 1004.4
20260506224049 59 218 5.2 11.3 0.00 0.00 0.00 100 1004.4
20260506223548 59 205 6.1 9.6 0.00 0.00 0.00 100 1004.4
20260506223016 59 223 3.5 9.6 0.00 0.00 0.00 100 1004.4
20260506222515 59 197 2.6 9.6 0.00 0.00 0.00 100 1004.4
20260506222014 59 212 3.5 9.6 0.00 0.00 0.00 100 1004.4
20260506221514 60 229 5.2 11.3 0.00 0.00 0.00 100 1004.7
20260506220910 60 205 1.7 11.3 0.00 0.00 0.00 100 1004.7
20260506220409 60 215 3.5 8.7 0.00 0.00 0.00 100 1004.7
20260506215908 60 205 3.5 11.3 0.00 0.00 0.00 100 1004.7
20260506215408 60 215 5.2 11.3 0.00 0.00 0.00 100 1004.7
20260506214805 60 254 0.0 10.4 0.00 0.00 0.00 100 1004.7
20260506214304 60 205 3.5 12.2 0.00 0.00 0.00 100 1004.7
20260506213803 60 221 3.5 12.2 0.00 0.00 0.00 100 1004.7
20260506213302 60 189 1.7 8.7 0.00 0.00 0.00 100 1004.7
20260506212801 61 231 0.9 7.8 0.00 0.00 0.00 100 1004.7
20260506212300 61 196 3.5 8.7 0.00 0.00 0.00 100 1004.7
20260506211800 61 206 4.3 8.7 0.00 0.00 0.00 100 1005.1
20260506211156 61 215 3.5 8.7 0.00 0.00 0.00 100 1005.1
20260506210655 61 214 3.5 11.3 0.00 0.00 0.00 100 1005.1
20260506210155 61 204 4.3 11.3 0.00 0.00 0.00 100 1005.1
20260506205654 61 208 4.3 7.8 0.00 0.00 0.00 100 1005.1
20260506205153 61 200 1.7 8.7 0.00 0.00 0.00 100 1005.1
20260506204621 61 206 4.3 8.7 0.00 0.00 0.00 100 1005.1
20260506204120 61 216 5.2 8.7 0.00 0.00 0.00 100 1005.1
20260506203619 61 206 3.5 7.8 0.00 0.00 0.00 100 1005.4
20260506203119 61 221 2.6 6.1 0.00 0.00 0.00 100 1005.4
20260506202547 61 215 2.6 6.1 0.00 0.00 0.00 100 1005.4
20260506201943 61 218 2.6 6.1 0.00 0.00 0.00 99 1005.5
20260506201443 61 232 2.6 5.2 0.00 0.00 0.00 99 1005.5
20260506200942 61 217 2.6 5.2 0.00 0.00 0.00 99 1005.5
20260506200441 61 205 1.7 7.0 0.00 0.00 0.00 99 1005.5
20260506195940 61 218 1.7 7.0 0.00 0.00 0.00 99 1005.5
20260506195440 61 214 1.7 8.7 0.00 0.00 0.00 99 1005.5
20260506194908 61 213 4.3 8.7 0.00 0.00 0.00 99 1005.2
20260506194407 61 223 3.5 6.1 0.00 0.00 0.00 99 1005.2
20260506193906 61 216 2.6 5.2 0.00 0.00 0.00 99 1005.5
20260506193334 61 219 1.7 5.2 0.00 0.00 0.00 99 1005.5
20260506192834 61 178 0.9 7.0 0.00 0.00 0.00 99 1005.5
20260506192333 61 243 2.6 7.0 0.00 0.00 0.00 99 1005.5
20260506191832 61 222 1.7 6.1 0.00 0.00 0.00 99 1005.8
20260506191259 61 200 3.5 6.1 0.00 0.00 0.00 99 1005.8
20260506190759 61 206 4.3 6.1 0.00 0.00 0.00 99 1005.8
20260506190258 61 202 1.7 4.3 0.00 0.00 0.00 99 1006.2
20260506185757 61 245 1.7 5.2 0.00 0.00 0.00 99 1006.2
20260506185257 61 215 2.6 4.3 0.00 0.00 0.00 98 1006.2
20260506184622 61 200 0.9 4.3 0.00 0.00 0.00 98 1006.5
20260506184122 61 249 1.7 4.3 0.00 0.00 0.00 98 1006.2
20260506183621 61 234 2.6 6.1 0.00 0.00 0.00 98 1006.2
20260506183120 61 224 2.6 6.1 0.00 0.00 0.00 97 1006.2
20260506182548 62 190 0.9 7.0 0.00 0.00 0.00 97 1006.5
20260506182047 62 258 4.3 9.6 0.00 0.00 0.00 97 1006.5
20260506181515 62 266 3.5 9.6 0.00 0.00 0.00 96 1006.9
20260506181014 62 228 2.6 11.3 0.00 0.00 0.00 96 1006.9
20260506180513 63 272 7.0 11.3 0.00 0.00 0.00 95 1006.5
20260506180012 64 272 4.3 11.3 0.00 0.00 0.00 91 1006.5
20260506175512 65 247 6.1 9.6 0.00 0.00 0.00 86 1006.5
20260506175011 66 234 2.6 9.6 0.00 0.00 0.00 81 1006.2
20260506174510 67 228 4.3 13.9 0.00 0.00 0.00 76 1006.2
20260506174009 69 246 8.7 13.9 0.00 0.00 0.00 68 1005.9
20260506173407 69 217 5.2 12.2 0.00 0.00 0.00 64 1005.9
20260506172906 70 225 7.8 16.5 0.00 0.00 0.00 62 1005.9
20260506172405 70 227 6.1 20.0 0.00 0.00 0.00 62 1005.9
20260506171904 71 208 12.2 20.0 0.00 0.00 0.00 61 1005.9
20260506171402 71 213 4.3 13.9 0.00 0.00 0.00 61 1005.9
20260506170901 71 205 5.2 15.6 0.00 0.00 0.00 61 1005.9
20260506170329 71 213 7.0 15.6 0.00 0.00 0.00 61 1006.2
20260506165828 70 225 6.1 14.8 0.00 0.00 0.00 62 1006.2
20260506165327 70 211 7.0 16.5 0.00 0.00 0.00 62 1006.2
20260506164755 70 228 7.0 16.5 0.00 0.00 0.00 61 1006.6
20260506164254 70 212 6.1 15.6 0.00 0.00 0.00 62 1006.6
20260506163754 70 218 7.0 15.6 0.00 0.00 0.00 63 1006.6
20260506163253 70 216 4.3 9.6 0.00 0.00 0.00 65 1006.6
20260506162752 70 204 4.3 11.3 0.00 0.00 0.00 65 1006.9
20260506162251 70 206 3.5 11.3 0.00 0.00 0.00 65 1006.9
20260506161750 69 210 5.2 15.6 0.00 0.00 0.00 66 1006.9
20260506161250 69 221 5.2 15.6 0.00 0.00 0.00 65 1007.2
20260506160748 69 216 6.1 11.3 0.00 0.00 0.00 66 1007.2
20260506160248 69 242 6.1 9.6 0.00 0.00 0.00 67 1007.6
20260506155716 69 238 5.2 9.6 0.00 0.00 0.00 67 1007.6
20260506155144 69 210 6.1 9.6 0.00 0.00 0.00 68 1007.6
20260506154643 69 245 5.2 12.2 0.00 0.00 0.00 67 1007.9
20260506154143 69 224 6.1 12.2 0.00 0.00 0.00 66 1007.9
20260506153642 69 250 3.5 10.4 0.00 0.00 0.00 68 1007.9
20260506153141 68 223 5.2 16.5 0.00 0.00 0.00 68 1008.2
20260506152640 68 260 7.8 16.5 0.00 0.00 0.00 68 1008.2
20260506152139 68 221 4.3 11.3 0.00 0.00 0.00 69 1008.2
20260506151607 68 214 5.2 10.4 0.00 0.00 0.00 69 1008.2
20260506151106 68 218 6.1 11.3 0.00 0.00 0.00 69 1007.9
20260506150606 68 209 6.1 11.3 0.00 0.00 0.00 69 1007.9
20260506150105 69 203 6.1 11.3 0.00 0.00 0.00 69 1008.2
20260506145604 69 250 4.3 11.3 0.00 0.00 0.00 68 1008.3
20260506145104 69 241 6.1 13.0 0.00 0.00 0.00 67 1007.9
20260506144603 69 195 5.2 13.0 0.00 0.00 0.00 70 1007.9
20260506144102 68 230 5.2 11.3 0.00 0.00 0.00 69 1007.9
20260506143601 68 221 5.2 12.2 0.00 0.00 0.00 70 1007.9
20260506143100 68 230 4.3 13.9 0.00 0.00 0.00 71 1007.9
20260506142600 68 217 5.2 13.9 0.00 0.00 0.00 72 1007.9
20260506142059 67 207 5.2 11.3 0.00 0.00 0.00 72 1007.9
20260506141558 67 215 2.6 10.4 0.00 0.00 0.00 73 1007.9
20260506141057 67 214 4.3 7.0 0.00 0.00 0.00 75 1007.9
20260506140556 66 275 3.5 8.7 0.00 0.00 0.00 75 1007.9
20260506140024 66 204 2.6 9.6 0.00 0.00 0.00 77 1007.9
20260506135523 66 214 3.5 9.6 0.00 0.00 0.00 77 1007.9
20260506135022 65 223 4.3 9.6 0.00 0.00 0.00 77 1007.9
20260506134521 65 206 6.1 9.6 0.00 0.00 0.00 78 1007.9
20260506134021 65 260 1.7 9.6 0.00 0.00 0.00 79 1008.3
20260506133520 64 248 3.5 11.3 0.00 0.00 0.00 79 1008.3
20260506133019 64 235 4.3 11.3 0.00 0.00 0.00 80 1008.3
20260506132518 64 251 5.2 11.3 0.00 0.00 0.00 80 1008.3
20260506132017 64 219 5.2 10.4 0.00 0.00 0.00 80 1008.3
20260506131445 64 238 4.3 10.4 0.00 0.00 0.00 80 1008.6
20260506130913 64 223 6.1 10.4 0.00 0.00 0.00 80 1008.3
20260506130412 64 225 5.2 10.4 0.00 0.00 0.00 80 1008.6
20260506125912 64 208 2.6 10.4 0.00 0.00 0.00 80 1008.6
20260506125411 64 242 4.3 10.4 0.00 0.00 0.00 81 1008.3
20260506124839 63 220 4.3 10.4 0.00 0.00 0.00 81 1008.3
20260506124338 63 242 2.6 7.8 0.00 0.00 0.00 82 1008.3
20260506123837 63 213 4.3 7.8 0.00 0.00 0.00 82 1008.3
20260506123337 63 226 4.3 7.0 0.00 0.00 0.00 82 1008.6
20260506122836 63 215 3.5 7.0 0.00 0.00 0.00 82 1008.6
20260506122335 63 202 3.5 8.7 0.00 0.00 0.00 82 1008.6
20260506121834 62 213 3.5 8.7 0.00 0.00 0.00 82 1008.6
20260506121333 62 231 5.2 7.8 0.00 0.00 0.00 82 1008.6
20260506120833 62 229 2.6 7.0 0.00 0.00 0.00 84 1008.6
20260506120301 62 217 5.2 7.0 0.00 0.00 0.00 85 1008.6
20260506115800 61 224 3.5 7.8 0.00 0.00 0.00 85 1008.6
20260506115259 61 215 3.5 8.7 0.00 0.00 0.00 86 1008.9
20260506114758 61 242 5.2 8.7 0.00 0.00 0.00 85 1008.9
20260506114257 61 198 2.6 7.8 0.00 0.00 0.00 85 1008.9
20260506113754 61 244 5.2 7.8 0.00 0.00 0.00 85 1008.9
20260506113253 61 243 3.5 6.1 0.00 0.00 0.00 86 1008.9
20260506112752 60 238 2.6 4.3 0.00 0.00 0.00 89 1008.6
20260506112251 59 241 2.6 4.3 0.00 0.00 0.00 92 1008.9
20260506111750 59 232 2.6 5.2 0.00 0.00 0.00 92 1009.0
20260506111250 58 244 3.5 5.2 0.00 0.00 0.00 92 1009.0
20260506110749 58 205 1.7 3.5 0.00 0.00 0.00 94 1009.0
20260506110248 57 265 0.9 3.5 0.00 0.00 0.00 95 1009.3
20260506105747 57 293 2.6 3.5 0.00 0.00 0.00 95 1009.3
20260506105243 57 268 0.9 3.5 0.00 0.00 0.00 94 1009.0
20260506104742 57 240 1.7 3.5 0.00 0.00 0.00 94 1009.0
20260506104241 57 284 1.7 4.3 0.00 0.00 0.00 94 1009.3
20260506103741 57 269 2.6 5.2 0.00 0.00 0.00 95 1009.0
20260506103208 57 223 1.7 7.0 0.00 0.00 0.00 95 1009.0
20260506102708 56 239 2.6 7.0 0.00 0.00 0.00 95 1009.0
20260506102207 56 187 1.7 7.8 0.00 0.00 0.00 96 1009.3
20260506101706 56 215 2.6 7.8 0.00 0.00 0.00 96 1009.0
20260506101205 55 216 4.3 8.7 0.00 0.00 0.00 96 1008.6
20260506100704 55 211 2.6 8.7 0.00 0.00 0.00 96 1009.0
20260506100204 54 222 4.3 7.8 0.00 0.00 0.00 97 1009.0
20260506095703 54 215 3.5 7.8 0.00 0.00 0.00 97 1009.0
20260506095202 53 221 3.5 7.8 0.00 0.00 0.00 97 1008.6
20260506094630 53 235 2.6 6.1 0.00 0.00 0.00 97 1008.6
20260506094129 53 237 1.7 4.3 0.00 0.00 0.00 97 1008.9
20260506093628 53 243 0.9 2.6 0.00 0.00 0.00 97 1008.6
20260506093128 53 228 0.9 2.6 0.00 0.00 0.00 96 1008.6
20260506092627 53 241 0.9 3.5 0.00 0.00 0.00 96 1009.0
20260506092054 53 236 1.7 3.5 0.00 0.00 0.00 96 1008.6
20260506091553 53 242 1.7 4.3 0.00 0.00 0.00 96 1008.6
20260506091052 54 225 1.7 4.3 0.00 0.00 0.00 95 1008.6
20260506090552 54 228 1.7 4.3 0.00 0.00 0.00 95 1008.6
20260506090051 54 234 0.9 3.5 0.00 0.00 0.00 94 1008.6
20260506085550 54 226 1.7 3.5 0.00 0.00 0.00 93 1008.6
20260506085018 55 251 1.7 3.5 0.00 0.00 0.00 92 1008.6
20260506084517 55 230 0.9 3.5 0.00 0.00 0.00 92 1009.0
20260506084016 55 271 1.7 3.5 0.00 0.00 0.00 91 1009.0
20260506083516 55 286 1.7 4.3 0.00 0.00 0.00 90 1009.0
20260506083015 56 271 1.7 4.3 0.00 0.00 0.00 90 1009.0
20260506082514 56 272 1.7 4.3 0.00 0.00 0.00 89 1008.7
20260506082013 56 272 0.9 4.3 0.00 0.00 0.00 88 1008.7
20260506081441 57 258 0.9 4.3 0.00 0.00 0.00 87 1008.7
20260506080909 57 225 2.6 6.1 0.00 0.00 0.00 87 1008.7
20260506080408 57 222 3.5 6.1 0.00 0.00 0.00 86 1008.7
20260506073332 58 273 2.6 4.3 0.00 0.00 0.00 82 1008.7
20260506072800 59 282 1.7 3.5 0.00 0.00 0.00 82 1008.7
20260506072156 59 285 2.6 3.5 0.00 0.00 0.00 81 1008.7
20260506071656 59 281 1.7 4.3 0.00 0.00 0.00 81 1008.7
20260506071155 59 289 0.9 4.3 0.00 0.00 0.00 81 1008.7
20260506070654 59 287 1.7 3.5 0.00 0.00 0.00 80 1008.7